Tracking 32460 objects as of 11-Dec-2025
HD Live streaming from Space Station
objects crossing your sky now

SL-12 R/B(2)

Track SL-12 R/B(2) now!


NORAD ID: 25900
Int'l Code: 1999-047E
Perigee: 35,417.5 km
Apogee: 36,261.6 km
Inclination: 14.5 °
Period: 1,438.4 minutes
Semi major axis: 42210 km
RCS: 1.9952 m2 (large)
Launch date: September 6, 1999
Source: Commonwealth of Independent States (former USSR) (CIS)
Launch site: TYURATAM MISSILE AND SPACE COMPLEX (TTMTR)

Note: This is a ROCKET BODY
Your satellite tracking list
Your tracking list is empty




NASA's NSSDC Master Catalog

Two Line Element Set (TLE):
1 25900U 99047E   25345.14640889  .00000061  00000-0  00000-0 0  9991
2 25900  14.4911   0.6212 0099979  58.4227 131.1179  1.00108641 96098
Source of the keplerian elements: AFSPC